Location: PSU-Greenbush Astrophysical Observatory
(37.5140°N, 94.9880°W)
Time: 21:46:55
(UTC-06:00)

Altair - Pass Details

Date: 29 January 2020
Orbit: 1502 x 1682 km, 47.2° (Epoch: 17 February)

Event Time Altitude Azimuth Distance (km) Brightness Sun altitude
Rises 14:16:43 0° 301° (WNW) 4,938 10.1 29.5°
Reaches altitude 10° 14:19:56 10° 299° (WNW) 3,944 9.7 29.1°
Maximum altitude 14:29:55 66° 221° (SW) 1,782 8.9 28.1°
Drops below altitude 10° 14:39:38 10° 141° (SE) 3,835 9.9 27.1°
Sets 14:42:43 0° 139° (SE) 4,795 10.3 26.7°
